Weather reports worldwide

Advertisment
Lechfeld, Germany (10856): temperature & dewpoint: 15.09.2020 02:00:00 - 21.09.2020 02:00:00 (CEST)Lechfeld, Germany (10856): wind speed: 15.09.2020 02:00:00 - 21.09.2020 02:00:00 (CEST)Lechfeld, Germany (10856): wind direction: 15.09.2020 02:00:00 - 21.09.2020 02:00:00 (CEST)Lechfeld, Germany (10856): reduced air pressure: 15.09.2020 02:00:00 - 21.09.2020 02:00:00 (CEST)Lechfeld, Germany (10856): visibility: 15.09.2020 02:00:00 - 21.09.2020 02:00:00 (CEST)
Date & Time tt [°C] td [°C] ff [km/h] ff [kn] dd ppp [hPa] vv [km]
21.09.2020 02:00:00 10,3 9,3 7 4 SSW 1016,6 30
21.09.2020 01:00:00 11,8 9,8 4 2 N 1016,0 30
21.09.2020 00:00:00 11,4 9,8 4 2 N 1015,9 30
20.09.2020 23:00:00 12,9 10,5 4 2 SE 1015,9 30
20.09.2020 22:00:00 13,9 10,6 4 2 ENE 1015,6 30
20.09.2020 21:00:00 14,6 10,1 7 4 N 1015,4 30
20.09.2020 20:00:00 17,6 10,9 11 6 N 1014,2 30
20.09.2020 19:00:00 18,4 10,9 11 6 NE 1013,4 30
20.09.2020 18:00:00 21,0 10,9 14 8 ENE 1012,4 30
20.09.2020 17:00:00 21,6 12,2 11 6 NE 1012,2 30
20.09.2020 16:00:00 21,9 12,9 11 6 NE 1012,2 30
20.09.2020 15:00:00 21,2 12,9 7 4 NNE 1012,7 30
20.09.2020 14:00:00 20,9 13,1 7 4 NE 1013,1 25
20.09.2020 13:00:00 19,2 12,9 7 4 N 1013,7 20
20.09.2020 12:00:00 17,5 12,0 7 4 NNE 1014,3 15
20.09.2020 11:00:00 15,9 11,4 7 4 ENE 1014,9 14
20.09.2020 10:00:00 13,3 10,4 4 2 NNE 1015,8 18
20.09.2020 09:00:00 11,1 10,7 0 0 N 1016,1 13
20.09.2020 08:00:00 7,4 7,1 4 2 ENE 1016,9 2,6
20.09.2020 07:00:00 7,6 7,3 0 0 N 1016,9 0,1
20.09.2020 06:00:00 7,1 6,7 4 2 N 1017,0 0,1
20.09.2020 05:00:00 8,2 7,8 0 0 N 1016,7 0,1
20.09.2020 04:00:00 7,9 7,4 4 2 E 1016,8 0,1
20.09.2020 03:00:00 9,3 9,0 4 2 W 1016,8 4,8
20.09.2020 02:00:00 8,7 8,3 4 2 SSE 1017,2 0,1
20.09.2020 01:00:00 9,0 8,5 4 2 N 1017,6 0,1
20.09.2020 00:00:00 11,3 10,6 0 0 N 1017,7 0,1
19.09.2020 23:00:00 13,2 11,5 4 2 NNW 1017,0 4,6
19.09.2020 22:00:00 13,3 12,0 4 2 ESE 1017,0 1,7
19.09.2020 21:00:00 14,7 12,2 7 4 NNE 1016,7 16
19.09.2020 20:00:00 16,4 12,3 7 4 NE 1016,2 17
19.09.2020 19:00:00 19,5 11,7 7 4 N 1015,7 21
19.09.2020 18:00:00 20,7 11,7 7 4 NE 1015,4 20
19.09.2020 17:00:00 21,3 11,8 7 4 NE 1015,6 18
19.09.2020 16:00:00 21,2 11,1 7 4 NNE 1016,1 15
19.09.2020 15:00:00 20,4 11,1 7 4 NNW 1016,9 15
19.09.2020 14:00:00 19,4 11,4 7 4 NNE 1017,2 15
19.09.2020 13:00:00 17,5 10,4 4 2 N 1018,1 13
19.09.2020 12:00:00 15,5 9,3 7 4 NNE 1018,8 13
19.09.2020 11:00:00 13,0 7,6 7 4 N 1019,6 22
19.09.2020 10:00:00 11,0 6,6 4 2 N 1020,0 30
19.09.2020 09:00:00 8,5 5,4 4 2 NE 1020,5 35
19.09.2020 08:00:00 5,8 4,8 4 2 SSE 1021,2 35
19.09.2020 07:00:00 4,6 3,6 4 2 N 1021,6 0,2
19.09.2020 06:00:00 5,3 4,2 4 2 N 1021,7 30
19.09.2020 05:00:00 6,7 4,7 7 4 NNE 1021,6 30
19.09.2020 04:00:00 6,7 5,2 4 2 NE 1021,9 30
19.09.2020 03:00:00 7,5 4,7 11 6 NNE 1022,3 30
19.09.2020 02:00:00 7,1 4,6 7 4 NE 1022,9 30
19.09.2020 01:00:00 7,9 4,6 7 4 NE 1023,0 30
19.09.2020 00:00:00 8,6 5,5 7 4 ENE 1023,3 30
18.09.2020 23:00:00 7,7 4,9 11 6 ENE 1023,8 30
18.09.2020 22:00:00 11,0 7,1 7 4 ENE 1023,4 30
18.09.2020 21:00:00 11,9 7,8 11 6 ENE 1023,5 30
18.09.2020 20:00:00 13,9 8,7 14 8 ENE 1022,6 40
18.09.2020 19:00:00 16,4 9,6 14 8 ENE 1021,9 40
18.09.2020 18:00:00 18,2 10,0 22 12 ENE 1021,5 40
18.09.2020 17:00:00 18,8 10,1 22 12 ENE 1021,6 40
18.09.2020 16:00:00 19,0 10,4 22 12 E 1021,8 40
18.09.2020 15:00:00 18,5 11,4 18 10 ENE 1022,1 30
18.09.2020 14:00:00 17,9 11,0 18 10 ENE 1022,6 30
18.09.2020 13:00:00 16,9 11,1 22 12 ENE 1023,0 30
18.09.2020 12:00:00 16,1 10,9 22 12 ENE 1023,4 25
18.09.2020 11:00:00 14,7 10,6 18 10 NE 1023,9 10
18.09.2020 10:00:00 12,9 10,2 18 10 ENE 1024,1 8
18.09.2020 09:00:00 12,0 10,2 14 8 ENE 1023,9 8
18.09.2020 08:00:00 11,6 9,8 18 10 ENE 1023,6 8
18.09.2020 07:00:00 11,5 10,0 18 10 NE 1023,2 10
18.09.2020 06:00:00 11,0 9,6 18 10 ENE 1023,0 15
18.09.2020 05:00:00 11,5 9,8 18 10 ENE 1022,9 15
18.09.2020 04:00:00 11,9 10,3 18 10 NE 1022,8 15
18.09.2020 03:00:00 12,5 10,9 18 10 ENE 1022,7 15
18.09.2020 02:00:00 13,4 11,9 18 10 ENE 1022,8 15
18.09.2020 01:00:00 14,3 12,6 18 10 ENE 1022,9 15
18.09.2020 00:00:00 15,6 13,6 22 12 NE 1023,1 20
17.09.2020 23:00:00 16,3 13,4 18 10 NE 1023,1 20
17.09.2020 22:00:00 17,1 13,7 22 12 NE 1022,5 25
17.09.2020 21:00:00 17,8 14,4 22 12 NE 1022,1 25
17.09.2020 20:00:00 18,3 14,4 18 10 NNE 1021,4 20
17.09.2020 19:00:00 19,4 15,1 18 10 NNE 1020,7 20
17.09.2020 18:00:00 20,5 14,9 18 10 NNE 1020,2 20
17.09.2020 17:00:00 20,6 14,5 22 12 N 1020,5 20
17.09.2020 16:00:00 21,0 14,5 25 14 NNE 1020,7 20
17.09.2020 15:00:00 20,9 14,7 22 12 N 1020,8 20
17.09.2020 14:00:00 21,8 14,8 22 12 N 1020,4 20
17.09.2020 13:00:00 21,7 14,2 14 8 ENE 1020,4 20
17.09.2020 12:00:00 19,9 14,5 22 12 N 1021,3 25
17.09.2020 11:00:00 19,4 14,1 14 8 NNE 1021,3 25
17.09.2020 10:00:00 18,5 13,7 11 6 NNE 1021,2 25
17.09.2020 09:00:00 16,4 13,0 4 2 NNW 1021,4 25
17.09.2020 08:00:00 14,7 12,6 7 4 SSW 1021,2 20
17.09.2020 07:00:00 14,0 12,3 11 6 S 1020,8 20
17.09.2020 06:00:00 14,6 12,4 11 6 SW 1019,9 20
17.09.2020 05:00:00 13,5 12,3 7 4 S 1020,4 20
17.09.2020 04:00:00 13,3 12,2 14 8 S 1020,7 20
17.09.2020 03:00:00 13,9 12,8 7 4 SW 1020,8 20
17.09.2020 02:00:00 14,7 13,3 7 4 WSW 1020,5 20
17.09.2020 01:00:00 12,3 11,3 7 4 SSW 1020,9 20
17.09.2020 00:00:00 14,0 13,1 11 6 S 1020,3 30
16.09.2020 23:00:00 14,2 13,0 7 4 SSW 1019,9 30
16.09.2020 22:00:00 15,3 13,4 4 2 SSW 1019,5 30
16.09.2020 21:00:00 17,0 14,4 4 2 SSW 1018,6 30
16.09.2020 20:00:00 20,4 14,4 7 4 W 1017,5 30
16.09.2020 19:00:00 23,4 14,0 7 4 W 1016,6 30
16.09.2020 18:00:00 25,4 13,9 7 4 W 1016,0 30
16.09.2020 17:00:00 25,1 13,9 7 4 NW 1016,3 30
16.09.2020 16:00:00 25,4 13,6 14 8 N 1016,6 30
16.09.2020 15:00:00 25,0 13,6 7 4 WSW 1016,9 30
16.09.2020 14:00:00 24,6 13,8 11 6 W 1017,3 30
16.09.2020 13:00:00 24,4 14,1 11 6 W 1017,5 30
16.09.2020 12:00:00 23,1 14,1 7 4 W 1018,1 30
16.09.2020 11:00:00 22,3 14,4 7 4 W 1018,4 30
16.09.2020 10:00:00 20,0 14,8 11 6 WSW 1019,0 30
16.09.2020 09:00:00 17,6 13,9 7 4 SW 1019,3 20
16.09.2020 08:00:00 15,8 13,1 14 8 SSW 1019,7 20
16.09.2020 07:00:00 14,6 12,8 7 4 SSW 1019,5 20
16.09.2020 06:00:00 15,2 12,9 11 6 SSW 1019,2 25
16.09.2020 05:00:00 15,4 12,8 11 6 SSW 1019,2 25
16.09.2020 04:00:00 14,9 12,3 7 4 S 1019,8 25
16.09.2020 03:00:00 16,4 13,1 11 6 SSW 1019,5 25
16.09.2020 02:00:00 15,8 13,3 11 6 S 1019,8 25
16.09.2020 01:00:00 14,4 13,1 7 4 S 1020,2 25
16.09.2020 00:00:00 14,2 12,2 4 2 S 1020,6 25
15.09.2020 23:00:00 15,9 14,3 7 4 S 1020,1 25
15.09.2020 22:00:00 17,2 14,7 7 4 SSW 1019,7 25
15.09.2020 21:00:00 18,6 14,6 7 4 SSE 1019,3 30
15.09.2020 20:00:00 21,1 14,9 0 0 N 1018,5 30
15.09.2020 19:00:00 25,7 13,2 7 4 NNW 1017,4 30
15.09.2020 18:00:00 27,2 12,7 7 4 WNW 1017,2 30
15.09.2020 17:00:00 27,2 14,1 4 2 ESE 1017,6 30
15.09.2020 16:00:00 27,5 13,2 7 4 WNW 1018,1 30
15.09.2020 15:00:00 27,1 13,7 11 6 SW 1018,8 30
15.09.2020 14:00:00 26,3 15,6 7 4 W 1019,4 30
15.09.2020 13:00:00 25,3 15,9 11 6 WSW 1020,3 20
15.09.2020 12:00:00 23,9 16,1 11 6 W 1020,9 20
15.09.2020 11:00:00 22,0 15,9 11 6 W 1021,5 20
15.09.2020 10:00:00 19,6 14,7 7 4 SW 1021,8 20
15.09.2020 09:00:00 17,0 13,8 7 4 S 1022,2 15
15.09.2020 08:00:00 13,6 13,3 7 4 S 1022,9 12
15.09.2020 07:00:00 10,8 10,4 4 2 S 1023,6 0,6
15.09.2020 06:00:00 11,6 11,2 4 2 SSE 1023,4 10
15.09.2020 05:00:00 12,0 11,6 4 2 SE 1023,5 15
15.09.2020 04:00:00 10,9 10,4 7 4 S 1023,9 15
15.09.2020 03:00:00 12,6 12,1 4 2 SSW 1023,7 15
15.09.2020 02:00:00 13,0 12,6 7 4 S 1023,9 15

tt = temperature
td = dewpoint
ff = wind speed
dd = wind direction
ppp = reduced air pressure
vv = visibility

Next stations